Regional Weather Roundup
Issued by NWS Columbia, SC

Home | Current Version | Previous Version | Text Only | Print | Product List | Glossary On
Versions: 1 2 3 4 5 6 7 8 9 10 11 12 13 14 15 16 17 18 19 20 21 22 23 24 25 26 27 28 29 30 31 32 33 34 35 36 37 38 39 40 41 42 43 44 45 46 47 48 49 50
000
ASUS42 KCAE 221910
RWRCAE
REGIONAL WEATHER ROUNDUP
NATIONAL WEATHER SERVICE COLUMBIA SC
200 PM EST THU FEB 22 2018

NOTE: "FAIR" INDICATES FEW OR NO CLOUDS BELOW 12,000 FEET WITH NO
SIGNIFICANT WEATHER AND/OR OBSTRUCTIONS TO VISIBILITY.

NOT ALL STATIONS ARE QUALITY CONTROLLED BY THE NATIONAL
WEATHER SERVICE. USE DATA WITH CAUTION...ESPECIALLY
DEWPOINT OBSERVATIONS.

SCZ001>056-GAZ040-063>065-077-222000-
...UPSTATE SOUTH CAROLINA...

CITY           SKY/WX    TMP DP  RH WIND       PRES   REMARKS
ANDERSON       PTSUNNY   76  63  64 MISG      30.42F
LIBERTY        MOCLDY    75  65  71 SW6       30.41F
SPARTANBURG    PTSUNNY   73  61  64 W10       30.42F HAZE
CLEMSON        PTSUNNY   72  62  71 S3        30.43F
GREENVILLE     CLOUDY    74  64  71 S10       30.43F
GREENWOOD      FAIR      77  63  61 W8        30.43F
GREER          CLOUDY    72  63  73 SW13      30.43F
ROCK HILL      FAIR      77  63  61 S8        30.41F
CHESTER        MOCLDY    77  61  57 S6        30.42F
LAURENS        FAIR      77  63  61 SW7       30.42F


...CENTRAL SOUTH CAROLINA...

CITY           SKY/WX    TMP DP  RH WIND       PRES   REMARKS
COLUMBIA APT   PTSUNNY   80  63  55 S5        30.41F
COLUMBIA OWENS CLOUDY    79  60  52 S7        30.42F
MCENTIRE ANGB  PTSUNNY   77  61  56 S8        30.42F
ORANGEBURG     CLOUDY    76  61  59 SW7       30.43F
SUMTER SHAW    PTSUNNY   76  62  59 S9        30.41F
NEWBERRY       MOCLDY    79  64  61 SW8       30.44F
AIKEN          CLOUDY    77  61  57 SW7       30.46F
BARNWELL         N/A     81  64  57 SW5G12    30.43F
MANNING        MOCLDY   N/A N/A N/A MISG      30.44F
CAMDEN         CLOUDY    79  61  53 S6G12     30.43F
LANCASTER      MOCLDY    75  63  64 S6        30.43F
WINNSBORO      MOCLDY    77  61  57 S3        30.41F


...EASTERN AND COASTAL SOUTH CAROLINA...

CITY           SKY/WX    TMP DP  RH WIND       PRES   REMARKS
MYRTLE BEACH   FAIR      74  63  68 S10       30.45F
N MYRTLE BCH   FAIR      74  63  68 S8        30.44F
CONWAY         FAIR      77  59  53 CALM      30.43F
MARION         CLOUDY    75  61  60 W3        30.44F
HARTSVILLE     CLOUDY    75  61  60 SW6       30.42F
FLORENCE       CLOUDY    77  62  59 CALM      30.43F
DARLINGTON     CLOUDY    76  64  66 SW10      30.44F
CHARLESTON APT FAIR      81  57  43 VRB6      30.43F
MOUNT PLEASANT FAIR      79  61  53 S12       30.44F
WALTERBORO     FAIR      79  61  53 SW3       30.44F
BEAUFORT       FAIR      80  63  55 SE7       30.43


...EASTERN GEORGIA...

CITY           SKY/WX    TMP DP  RH WIND       PRES   REMARKS
AUGUSTA BUSH F FAIR      80  64  58 SE5       30.41F
AUGUSTA DANIEL PTSUNNY   80  63  55 VRB5      30.42F
THOMSON        FAIR      80  63  56 W7        30.47F
CLAXTON        CLOUDY    83  61  47 NE9       30.42F
SYLVANIA       CLOUDY    80  64  58 SE3       30.44F
STATESBORO     PTSUNNY   79  54  41 SE3       30.43F
SAVANNAH       FAIR      81  59  47 SE6       30.42F


...SOUTHERN NORTH CAROLINA...

CITY           SKY/WX    TMP DP  RH WIND       PRES   REMARKS
CHARLOTTE      PTSUNNY   76  63  64 SW10      30.42F
MONROE         PTSUNNY   76  63  64 S8        30.41F
WADESBORO      FAIR      78  62  57 S7        30.42F
ROCKINGHAM     MOCLDY    76  63  64 SW8       30.43F
RUTHERFORDTON  PTSUNNY   75  63  64 S12G25    30.40F
ASHEVILLE      FAIR      76  59  55 S15G23    30.41F

$$



USA.gov is the U.S. government's official web portal to all federal, state and local government web resources and services.